Location: *
(38.4667°N, 106.2667°E)
Time: 10:14:59
(UTC+00:00)

Daily predictions for brighter satellites

Satellite Brightness Start Highest point End
(mag) Time Altitude Azimuth Time Altitude Azimuth Time Altitude Azimuth
CSL-04 Rocket 4.2 12:00:48 10° S 12:06:04 61° W 12:11:18 10° NNW
STARLINK-1202 4.1 12:02:50 10° WSW 12:06:48 60° NW 12:10:47 10° NE
Atlas Centaur 2 4.5 12:05:43 10° SW 12:07:44 12° SW 12:09:37 10° SSW
Cosmos 1110 Rocket 4.1 12:03:40 10° N 12:08:49 54° ENE 12:13:53 10° SE
USA 234 3.2 12:02:16 10° NE 12:08:50 74° SE 12:15:21 10° SW
SL-14 R/B 4.1 12:06:52 10° NNE 12:10:32 32° ENE 12:13:32 13° SE
YAOGAN 1 4.3 12:07:10 10° SSW 12:11:09 36° W 12:15:09 10° NNW
Cosmos 1674 2.7 12:07:26 10° N 12:11:11 80° W 12:14:54 10° S
STARLINK-1246 4.3 12:07:16 10° WSW 12:11:15 55° NW 12:15:15 10° NE
KORONAS-FOTON 3.8 12:09:28 10° N 12:13:18 84° W 12:17:04 10° S
Cosmos 1455 Rocket 2.9 12:10:05 10° S 12:14:23 76° E 12:18:44 10° N
Cosmos 1766 3.7 12:10:32 10° SSW 12:14:30 67° W 12:18:28 10° N
ARGOS Delta rocket 4.0 12:09:40 10° SSE 12:14:37 69° ENE 12:19:53 10° N
Abrixas rocket 2.7 12:12:08 10° SSW 12:14:48 32° SE 12:15:53 24° E
ADEOS Rocket 4.3 12:09:08 10° N 12:15:33 48° WNW 12:21:19 10° SW
Cosmos 332 Rocket 3.8 12:11:25 10° NNW 12:16:22 88° WSW 12:21:16 10° SSE
Cosmos 1745 Rocket 4.0 12:10:40 10° N 12:17:00 88° E 12:23:14 10° S
FREGAT/IRIS 2.7 12:15:54 20° SE 12:17:25 42° ENE 12:20:01 10° N
H-2A R/B 2.1 12:16:10 10° SSE 12:21:28 66° ENE 12:26:39 10° N
Cosmos 1892 Rocket 3.7 12:20:29 10° N 12:24:58 78° W 12:29:26 10° S
Cosmos 1626 Rocket 4.2 12:22:46 10° NNE 12:26:47 34° ENE 12:28:34 24° ESE
SJ-11-01 4.4 12:23:29 10° S 12:28:09 76° WSW 12:32:53 10° NNW
Cosmos 2297 4.0 12:24:10 10° N 12:29:38 47° ENE 12:33:01 22° SE
Cosmos 1953 3.9 12:31:30 18° ENE 12:31:30 18° ENE 12:33:15 10° NE
MONITOR-E 3.6 12:29:32 36° SSE 12:30:25 67° ENE 12:33:03 10° N
Meteor 2-5 Rocket 4.1 12:25:31 10° NNW 12:31:07 67° W 12:36:36 10° S
Okean 1-7 Rocket 3.7 12:27:23 10° N 12:31:47 77° W 12:36:09 10° S
Cosmos 2237 Rocket 3.9 12:26:45 10° SW 12:31:52 36° WNW 12:37:02 10° N
Delta 2 Rocket 4.3 12:29:12 10° W 12:33:40 46° SSW 12:36:19 25° SE
Cosmos 1602 Rocket 4.3 12:30:13 10° NNE 12:34:14 32° ENE 12:35:10 29° ESE
BREEZE-M DEB (TANK) 2.8 12:29:35 10° NW 12:38:46 78° SW 12:40:11 33° SE
Cosmos 1626 2.0 12:36:18 10° N 12:40:00 71° E 12:41:54 27° SSE
STARLINK-1079 4.5 12:37:16 10° NW 12:40:57 34° NNE 12:42:00 29° ENE
Cosmos 1544 Rocket 3.8 12:37:26 10° SSW 12:41:47 71° W 12:46:12 10° N
Cosmos 2278 Rocket 3.6 12:36:54 10° NW 12:42:05 37° WSW 12:47:15 10° S
Cosmos 2315 Rocket 3.9 12:37:20 10° S 12:43:36 81° E 12:49:58 10° N
CZ-2C R/B 3.0 12:39:25 10° NNE 12:44:14 38° E 12:46:29 26° SE
USA 186 2.2 12:41:46 15° S 12:44:33 66° W 12:47:58 10° NNW
CZ-2C R/B 3.7 12:40:19 10° NNE 12:45:04 69° ESE 12:49:43 10° S
STARLINK-1116 4.3 12:41:40 10° NW 12:45:25 37° NE 12:46:15 33° ENE
MOS 1 4.3 12:39:53 10° SSE 12:45:31 86° WSW 12:51:13 10° NNW
ARGOS 3.1 12:40:37 10° SSE 12:46:02 89° WSW 12:51:28 10° NNW
Cosmos 1302 Rocket 4.1 12:41:15 10° N 12:46:26 55° ENE 12:48:36 32° SE
Meteor 1-24 Rocket 4.0 12:42:10 10° NNW 12:47:37 64° W 12:52:52 10° S
Cosmos 2251 Rocket 3.9 12:46:24 10° S 12:51:19 40° ESE 12:56:19 10° NE
STARLINK-1094 4.0 12:50:31 10° NW 12:54:21 43° NE 12:54:49 41° NE
STARLINK-1117 3.9 12:54:57 10° NW 12:58:51 47° NE 12:59:08 46° NE
MetOp-A 4.1 12:57:04 33° SE 12:59:26 66° ENE 13:04:45 10° N
SL-24 R/B 3.9 12:55:38 10° NNE 13:00:09 88° E 13:03:27 15° SSW
Meteor 2-15 Rocket 4.3 12:56:44 10° S 13:02:48 82° E 13:08:53 10° N
STARLINK-1078 3.8 12:59:24 10° NW 13:03:19 51° NE 13:03:25 51° NE
CZ-2C R/B 3.7 13:01:34 10° S 13:06:36 51° W 13:11:24 10° NNW
STARLINK-1108 3.8 13:03:52 10° NW 13:07:44 55° NNE 13:07:44 55° NNE
BREEZE-M DEB (TANK) 3.6 13:04:27 10° WSW 13:09:59 35° NW 13:11:08 25° N
Cosmos 2369 Rocket 3.1 13:05:27 10° N 13:10:31 32° ENE 13:10:35 32° ENE
SL-08 RB Rocket 4.0 13:08:27 28° S 13:10:42 66° W 13:15:15 10° NNW
STARLINK-1124 3.8 13:07:36 10° NW 13:11:35 61° NNE 13:11:35 61° NNE
STARLINK-1071 3.8 13:08:19 10° NW 13:12:03 59° NNE 13:12:03 59° NNE
IRIDIUM 104 4.2 13:07:57 10° N 13:13:11 73° E 13:14:22 53° SSE
Cosmos 1709 Rocket 4.5 13:08:31 10° NNW 13:14:36 59° W 13:20:34 10° S
Resurs 1-3 3.4 13:15:10 77° SE 13:15:28 85° ENE 13:19:53 10° N
STARLINK-1110 3.8 13:12:47 10° NW 13:16:22 60° N 13:16:22 60° N
Cosmos 1470 4.1 13:14:18 10° SSW 13:17:55 38° W 13:21:34 10° N
NOSS 3-3 (A) 3.7 13:14:39 10° SSW 13:20:15 62° ESE 13:26:29 10° NE
NOSS 3-3 (C) 3.7 13:14:46 10° SSW 13:20:22 62° ESE 13:26:35 10° NE
SPOT 3 Rocket 3.7 13:18:07 34° S 13:20:25 71° WSW 13:25:39 10° NNW
ATLAS 5 CENTAUR R/B 4.4 13:13:44 10° SSW 13:55:17 - E 13:20:29 27° SSE
Meteor 1-21 Rocket 4.0 13:15:21 10° N 13:20:55 72° E 13:21:38 63° SE
SJ-6B 4.4 13:19:31 19° SSW 13:21:47 34° W 13:25:33 10° NNW
Resurs 01 Rocket 1.9 13:22:51 57° NNE 13:22:51 57° NNE 13:26:33 10° N
IRIDIUM 114 4.2 13:17:06 10° N 13:22:20 89° E 13:23:31 56° S
STARLINK-1122 4.1 13:21:51 10° NW 13:25:06 55° NW 13:25:06 55° NW
Cosmos 2074 Rocket 3.9 13:20:47 10° N 13:27:02 66° E 13:27:50 60° ESE
STARLINK-1126 4.3 13:26:26 10° NW 13:29:30 51° NW 13:29:30 51° NW
IRIDIUM 103 4.4 13:26:17 10° N 13:31:30 75° W 13:32:41 53° SSW
Cosmos 1943 Rocket 2.2 13:31:29 10° NNW 13:36:40 66° NE 13:36:40 66° NE
ISS -0.8 13:35:36 10° NNW 13:36:19 13° N 13:36:19 13° N
MOS 1 Rocket 3.9 13:32:47 10° N 13:37:58 64° WNW 13:41:47 19° SSW
Meteor 2-10 4.2 13:44:59 68° WSW 13:45:26 72° W 13:50:55 10° N
SL-16 R/B 4.3 13:40:59 10° WSW 13:45:36 25° WNW 13:50:14 10° N
Cosmos 292 Rocket 4.5 13:41:34 10° NNW 13:45:01 47° N 13:45:01 47° N
ATLAS 2AS CENTAUR R/B 4.1 13:41:00 10° NNW 13:47:11 26° NE 13:47:57 25° NE
Spot 2 Rocket 4.3 13:52:22 43° N 13:52:22 43° N 13:55:51 10° N
Cosmos 1603 4.2 14:07:28 55° NW 14:07:28 55° NW 14:12:25 10° NNE
Terra 4.4 14:14:06 13° NNE 14:14:06 13° NNE 14:14:39 10° N
Cosmos 2369 Rocket 4.0 14:49:25 10° NW 14:52:24 26° WNW 14:52:24 26° WNW
ATLAS 2AS CENTAUR R/B 4.2 15:31:32 10° NW 15:35:23 33° NW 15:35:23 33° NW
CZ-2D R/B 4.5 18:48:52 10° N 18:50:17 19° N 18:50:17 19° N
ADEOS II 4.1 19:01:15 10° NNE 19:03:19 24° NNE 19:03:19 24° NNE
Cosmos 2333 Rocket 4.5 19:08:37 10° N 19:12:49 21° NE 19:16:58 10° ESE
Cosmos 2360 Rocket 4.5 19:23:32 10° NNW 19:24:26 15° NNW 19:24:26 15° NNW
IDEFIX/ARIANE 42P 4.1 19:32:33 10° NE 19:36:59 29° E 19:36:59 29° E
SJ 16-02 3.4 19:47:35 25° NNE 19:47:35 25° NNE 19:49:32 10° NNE
Cosmos 1937 Rocket 4.4 19:53:46 44° E 19:53:46 44° E 19:58:22 10° NNE
Cosmos 1898 Rocket 4.2 19:54:56 49° NE 19:54:56 49° NE 19:58:53 10° NNE
Cosmos 2297 Rocket 4.4 19:58:50 11° SE 20:02:25 20° E 20:06:20 10° NE
Tsikada Rocket 4.0 20:04:37 72° SSE 20:05:14 80° E 20:11:41 10° N
USA 267 4.3 20:00:42 10° NNE 20:06:20 32° NNW 20:07:23 31° NW
Lacrosse 5 rocket 3.3 20:09:11 25° NE 20:09:11 25° NE 20:10:57 10° NE
Cosmos 2285 Rocket 4.1 20:08:27 61° NW 20:08:27 61° NW 20:14:15 10° NNE
Meteor 1-27 Rocket 3.9 20:12:07 62° NNW 20:12:07 62° NNW 20:16:55 10° N
COSMOS 2428 3.3 20:10:27 10° NNW 20:16:04 56° ENE 20:21:37 10° SE
Cosmos 2346 Rocket 4.5 20:18:25 62° WNW 20:18:25 62° WNW 20:24:08 10° N
Cosmos 2242 Rocket 4.0 20:20:07 63° ENE 20:20:07 63° ENE 20:24:19 10° NNE
COBE Rocket 4.2 20:19:09 43° SE 20:20:35 64° ENE 20:25:21 10° N
Cosmos 2322 4.1 20:18:49 10° NNW 20:23:01 49° NW 20:23:01 49° NW
Cosmos 2034 Rocket 4.1 20:18:39 10° NNW 20:24:31 58° WNW 20:24:31 58° WNW
Meteor 1-11 Rocket 4.0 20:19:21 10° NNW 20:24:21 56° WNW 20:24:21 56° WNW
Cosmos 2227 Rocket 3.9 20:22:43 11° SSE 20:27:07 28° ESE 20:31:52 10° NE
Cosmos 990 Rocket 4.2 20:28:15 54° NW 20:28:15 54° NW 20:32:39 10° N
Cosmos 2333 4.2 20:22:45 10° NNW 20:35:08 - SSE 20:27:33 62° WNW
STARLINK-74 4.4 20:30:11 45° ESE 20:30:11 45° ESE 20:33:30 10° ENE
STARLINK-1051 4.3 20:31:31 49° ESE 20:31:31 49° ESE 20:35:07 10° ENE
STARLINK-39 4.3 20:31:48 47° ESE 20:31:48 47° ESE 20:35:11 10° ENE
Cosmos 1743 4.3 20:27:53 10° NNE 20:31:27 34° ENE 20:35:01 10° SE
GPS 2-04 Rocket1 4.0 20:34:23 33° ESE 20:34:23 33° ESE 20:36:37 10° ESE
STARLINK-31 4.2 20:33:25 50° ESE 20:33:25 50° ESE 20:36:52 10° ENE
Cosmos 158 Rocket 3.8 20:27:48 10° NNW 20:33:05 80° WSW 20:33:49 65° S
Cosmos 2219 Rocket 2.1 20:28:11 10° NNW 20:33:49 84° ENE 20:39:24 10° SSE
SL-4 R/B 3.6 20:33:02 25° N 20:34:31 32° NNE 20:38:23 10° E
STARLINK-69 4.0 20:35:14 56° E 20:35:14 56° E 20:38:44 10° NE
STARLINK-21 4.0 20:36:38 56° ESE 20:36:38 56° ESE 20:40:14 10° NE
Geosat 3.9 20:33:00 10° NNE 20:37:59 63° WNW 20:38:13 62° WNW
STARLINK-45 3.8 20:38:28 63° E 20:38:28 63° E 20:42:07 10° NE
USA 234 3.1 20:32:18 10° SE 20:38:49 74° SW 20:45:22 10° NW
STARLINK-70 3.8 20:39:54 65° ESE 20:39:54 65° ESE 20:43:38 10° NE
STARLINK-1028 3.8 20:41:06 64° SE 20:41:06 64° SE 20:45:08 10° NE
STARLINK-76 3.7 20:41:23 65° ESE 20:41:23 65° ESE 20:45:12 10° NE
STARLINK-23 3.7 20:42:59 68° ESE 20:42:59 68° ESE 20:46:52 10° NE
STARLINK-1007 3.7 20:43:25 71° SE 20:43:27 71° SE 20:47:39 10° NE
STARLINK-32 3.6 20:44:35 71° SE 20:44:35 71° SE 20:48:32 10° NE
ADEOS II 3.9 20:42:10 10° NNW 20:44:16 17° NW 20:44:16 17° NW
STARLINK-1021 3.6 20:45:52 71° SSE 20:45:59 72° SE 20:50:07 10° NE
STARLINK-40 3.5 20:46:10 74° SE 20:46:10 74° SE 20:50:12 10° NE
ARIANE 5 R/B 4.0 20:42:12 10° NNW 20:45:18 23° NW 20:45:18 23° NW
STARLINK-44 3.5 20:47:46 76° SSE 20:47:49 76° SE 20:51:51 10° NE
NOSS 3-2 (A) 4.4 20:44:56 16° S 20:48:56 40° ESE 20:54:34 10° NE
STARLINK-37 3.4 20:49:30 83° S 20:49:35 84° SE 20:53:37 10° NE
SeaSat 1 2.7 20:45:58 10° SE 20:50:51 70° ENE 20:55:47 10° NNW
STARLINK-1019 3.5 20:50:40 73° S 20:50:58 80° SE 20:55:07 10° NE
STARLINK-36 3.4 20:50:55 78° S 20:51:06 82° SE 20:55:08 10° NE
STARLINK-68 3.3 20:52:46 80° WSW 20:52:58 87° NW 20:57:01 10° NE
STARLINK-63 3.3 20:54:14 77° SW 20:54:32 88° NW 20:58:34 10° NE
PSLV R/B 3.4 20:50:29 10° N 20:54:51 85° WNW 20:56:09 45° SSW
STARLINK-61 4.1 20:55:16 42° NW 20:55:16 42° NW 20:58:59 10° NE
CZ-4B R/B 2.3 20:56:58 38° NNW 20:56:58 38° NNW 20:59:16 10° NNW
STARLINK-1012 3.5 20:55:26 68° SW 20:55:56 88° SE 21:00:06 10° NE
STARLINK-35 3.3 20:55:42 73° SW 20:56:05 89° N 21:00:07 10° NE
STARLINK-1029 3.9 20:56:53 40° N 20:56:53 40° N 20:59:17 10° NE
ATLAS CENTAUR R/B 3.4 20:58:03 14° E 20:58:03 14° E 20:58:37 10° E
Cosmos 2333 Rocket 2.2 20:51:55 10° NNW 20:57:26 56° WSW 21:02:56 10° S
STARLINK-51 3.4 20:57:18 70° WSW 20:57:43 86° NW 21:01:46 10° NE
STARLINK-30 3.4 20:58:53 67° WSW 20:59:23 84° NW 21:03:25 10° NE
STARLINK-72 3.4 21:00:22 64° WSW 21:00:55 81° NW 21:04:58 10° NE
STARLINK-50 3.4 21:02:05 61° WSW 21:02:43 78° NW 21:06:45 10° NE
Cosmos 1782 Rocket 3.7 20:59:34 10° N 21:03:55 71° E 21:08:13 10° SSE
STARLINK-59 3.5 21:03:47 57° W 21:04:27 72° NW 21:08:29 10° NE
STARLINK-1026 3.5 21:05:01 53° WSW 21:05:54 77° NW 21:10:03 10° NE
STARLINK-58 4.3 21:05:57 30° NNW 21:05:58 30° NNW 21:09:04 10° NNE
STARLINK-56 3.5 21:05:15 55° WSW 21:06:00 73° NW 21:10:02 10° NE
STARLINK-73 3.5 21:06:48 52° WSW 21:07:37 71° NW 21:11:38 10° NE
Cosmos 1703 Rocket 3.6 21:06:49 41° SW 21:08:03 55° W 21:12:28 10° N
Cosmos 389 Rocket 4.5 21:05:01 10° SSE 21:08:11 30° E 21:11:23 10° NNE
Cosmos 1689 Rocket 2.1 21:07:06 17° SSE 21:09:16 78° ENE 21:12:18 10° N
STARLINK-38 3.5 21:08:26 50° W 21:09:19 68° NW 21:13:20 10° NE
STARLINK-34 4.5 21:09:19 27° NW 21:09:33 28° NNW 21:12:38 10° NNE
STARLINK-62 4.5 21:10:32 27° NW 21:10:49 27° NNW 21:13:52 10° NNE
STARLINK-1013 3.6 21:09:49 46° WSW 21:10:54 70° NW 21:15:02 10° NE
STARLINK-65 3.6 21:09:57 47° W 21:10:55 66° NW 21:14:55 10° NE
STARLINK-53 3.6 21:11:44 44° W 21:12:44 61° NW 21:16:43 10° NE
MSX 4.0 21:09:57 10° N 21:15:32 52° WNW 21:19:06 22° SW
STARLINK-1009 3.7 21:14:35 40° WSW 21:15:52 63° NW 21:19:59 10° NE
CZ-2C R/B 2.1 21:11:17 10° NNE 21:15:56 87° W 21:20:13 12° SSW
IDEFIX/ARIANE 42P 3.4 21:12:03 10° N 21:16:35 31° WNW 21:17:48 28° W
Cosmos 2279 Rocket 3.9 21:11:03 10° N 21:17:18 86° W 21:23:32 10° S
Meteor 2-4 Rocket 4.4 21:13:13 10° S 21:18:59 59° E 21:24:49 10° NNE
BREEZE M DEB (TANK) 2.5 21:20:06 39° NW 21:20:16 40° NNW 21:23:15 10° NE
CENTAUR R/B 3.9 21:15:22 10° S 21:20:25 34° ESE 21:26:10 10° NE
STARLINK-1015 3.8 21:19:20 35° W 21:20:50 58° NW 21:24:55 10° NE
NOSS 0 Rocket 3.8 21:17:46 10° NNW 21:23:55 73° WSW 21:30:01 10° SSE
SJ 16-02 3.5 21:24:36 12° NW 21:24:36 12° NW 21:25:50 10° NW
Sich 1 Rocket 3.6 21:21:00 10° N 21:25:25 84° E 21:29:48 10° S
STARLINK-1016 3.9 21:24:09 31° W 21:25:51 52° NW 21:29:54 10° NE
Cosmos 2237 Rocket 2.3 21:21:34 10° NNW 21:27:16 83° ENE 21:32:56 10° SSE
STARLINK-1010 4.3 21:26:20 27° W 21:28:07 41° NW 21:32:07 10° NE
STARLINK-24 4.0 21:26:30 29° W 21:28:08 45° NW 21:32:00 10° NE
Cosmos 2180 Rocket 4.5 21:22:56 10° N 21:29:09 88° W 21:35:23 10° S
STARLINK-1008 4.0 21:28:55 27° W 21:30:49 48° NW 21:34:51 10° NE
Cosmos 1908 Rocket 4.4 21:27:14 10° NNW 21:31:00 29° W 21:32:50 21° SW
Okean 3 3.6 21:26:55 10° S 21:31:05 77° E 21:35:16 10° N
STARLINK-1014 4.0 21:31:16 26° W 21:33:05 46° NW 21:36:56 10° NE
SJ-6F 4.4 21:30:11 10° N 21:34:16 66° WNW 21:38:22 10° SSW
PAYLOAD A 4.4 21:29:52 10° N 21:35:06 49° WNW 21:40:14 10° SW
PSLV R/B 3.9 21:34:14 10° SSE 21:38:26 83° WSW 21:42:41 10° NNW
Okean 2 Rocket 3.4 21:34:54 10° N 21:39:23 70° E 21:43:52 10° SSE
Cosmos 2219 3.6 21:36:08 17° SW 21:40:17 44° WNW 21:45:48 10° N
STARLINK-1025 4.3 21:38:29 21° W 21:40:49 40° NW 21:44:45 10° NE
Meteor 1-31 Rocket 2.7 21:37:33 10° N 21:41:31 86° WNW 21:45:26 10° SSW
ADEOS 4.0 21:36:57 10° N 21:41:51 43° WNW 21:46:45 10° SW
Okean 1-7 4.2 21:43:08 18° WSW 21:45:03 24° WNW 21:48:38 10° NNW
Cosmos 2298 Rocket 4.4 21:41:08 13° SW 21:45:37 44° WNW 21:50:44 10° N
STARLINK-1017 4.4 21:43:17 18° W 21:45:49 37° NNW 21:49:43 10° NE
Cosmos 2297 Rocket 2.4 21:40:42 11° SW 21:45:58 53° WNW 21:51:31 10° NNE
Lacrosse 5 rocket 3.4 21:44:49 10° WNW 21:46:49 14° NNW 21:48:53 10° N
Meteor 2-9 Rocket 4.3 21:41:08 10° NNW 21:46:57 69° W 21:52:45 10° S
STARLINK-1011 4.4 21:44:05 10° SSW 21:48:05 50° SE 21:52:06 10° ENE
Gblst 52 Del rocket 4.3 21:42:35 10° NW 21:48:38 79° NE 21:54:09 10° SE
Cosmos 2150 Rocket 4.4 21:43:53 11° SW 21:48:51 45° WNW 21:54:04 10° N
ASTRO E2 3.9 21:47:27 15° SW 21:50:00 29° S 21:53:28 10° ESE
Meteor PRIRODA 4.0 21:47:46 10° NNE 21:51:25 66° ESE 21:55:02 10° S
STARLINK-1036 4.2 21:49:00 10° SSW 21:53:03 56° SE 21:57:06 10° ENE
Meteor 1-4 Rocket 3.4 21:50:59 10° S 21:54:37 56° E 21:58:19 10° NNE
STARLINK-1044 4.0 21:53:54 10° SW 21:57:59 62° SE 22:02:05 10° NE
COSMOS 2428 3.9 21:56:00 10° WNW 21:59:47 18° W 22:03:33 10° SW
Cosmos 1048 Rocket 4.0 21:55:40 10° NNW 22:01:00 78° WSW 22:06:21 10° SSE
STARLINK-1027 3.9 21:58:23 10° SW 22:02:36 75° SE 22:06:52 10° NE
STARLINK-1047 3.9 21:58:50 10° SW 22:02:57 69° SE 22:07:04 10° NE
Cosmos 1125 Rocket 3.7 21:58:32 10° SSW 22:03:44 57° WNW 22:08:59 10° N
Cosmos 1544 3.7 22:01:28 10° NNW 22:04:48 34° W 22:08:07 10° SSW
STARLINK-1037 3.8 22:00:58 10° SW 22:05:04 73° SE 22:09:13 10° NE
CZ-4B R/B 4.2 22:01:35 10° N 22:05:29 43° WNW 22:09:11 10° SW
Cosmos 494 Rocket 4.5 22:01:34 10° NNW 22:06:50 68° ENE 22:12:03 10° SSE
ATLAS 3B R/B 3.7 22:01:53 10° S 22:08:13 47° ESE 22:14:31 10° NE
Cosmos 1975 3.8 22:05:21 10° NW 22:08:39 25° W 22:11:56 10° SW
USA 238 DEB 3.9 22:03:02 10° SW 22:09:29 53° NW 22:16:12 10° NNE
USA 238 3.9 22:03:08 10° SW 22:09:36 54° NW 22:16:19 10° NNE
SKYMED 2 3.8 22:06:14 10° SSE 22:10:34 79° ENE 22:14:54 10° N
Cosmos 2227 Rocket 2.8 22:05:46 10° SW 22:10:58 37° WNW 22:16:12 10° N
GPS 2-04 Rocket1 3.4 22:08:42 10° W 22:12:10 34° SSW 22:15:29 10° SE
Cosmos 1300 Rocket 3.5 22:07:59 10° NNW 22:12:14 60° W 22:16:28 10° S
STARLINK-1059 3.7 22:08:47 10° SW 22:12:55 85° SE 22:17:04 10° NE
SL-4 R/B 2.5 22:10:20 10° WNW 22:14:14 42° SW 22:18:25 10° SSE
STARLINK-60 3.5 22:12:21 10° NW 22:15:36 63° NE 22:18:49 10° ESE
Cosmos 2219 Rocket 3.9 22:15:28 10° W 22:16:55 11° W 22:18:22 10° WSW
STARLINK-1057 3.6 22:13:45 10° SW 22:17:53 87° NW 22:22:03 10° NE
